Regional Weather Roundup
Issued by NWS Newport/Morehead, NC

Current Version | Previous Version | Graphics & Text | Print | Product List | Glossary On
Versions: 1 2 3 4 5 6 7 8 9 10 11 12 13 14 15 16 17 18 19 20 21 22 23 24 25 26 27 28 29 30 31 32 33 34 35 36 37 38 39 40 41 42 43 44 45 46 47
000 ASUS42 KMHX 210325 RWRMHX WEATHER ROUNDUP FOR EASTERN NORTH CAROLINA NATIONAL WEATHER SERVICE NEWPORT/MOREHEAD CITY NC 1100 PM EDT SUN AUG 20 2017 NOTE: "FAIR" INDICATES FEW OR NO CLOUDS BELOW 12,000 FEET WITH NO SIGNIFICANT WEATHER AND/OR OBSTRUCTIONS TO VISIBILITY NCZ015>017-031-032-045>047-102-103-210400- NORTH COAST CITY SKY/WX TMP DP RH WIND PRES REMARKS EDENTON CLEAR 80 76 88 CALM 30.18R ELIZABETH CITY CLEAR 75 74 96 CALM 30.18R KITTY HAWK CLEAR 77 73 89 CALM 30.16S MANTEO CLEAR 75 74 95 CALM 30.18S $$ NCZ045>047-081-094-103-104-210400- CENTRAL COAST CITY SKY/WX TMP DP RH WIND PRES REMARKS FRISCO CLEAR 77 77 100 E3 30.17R $$ NCZ095-097-098-100-101-210400- SOUTHERN COAST CITY SKY/WX TMP DP RH WIND PRES REMARKS BEAUFORT PTCLDY 79 78 97 CALM 30.16S CEDAR ISLAND NOT AVBL JACKSONVILLE PTCLDY 77 77 100 CALM 30.15R PINEY ISLAND PTCLDY N/A N/A N/A CALM 30.16S WILMINGTON PTCLDY 78 76 93 CALM 30.15S $$ NCZ011>013-027>030-043-044-078>080-089-090>093-098-210400- COASTAL PLAIN CITY SKY/WX TMP DP RH WIND PRES REMARKS AHOSKIE N/A 75 74 95 CALM 30.18R CLINTON CLOUDY 76 75 96 CALM 30.16S ELIZABETHTOWN NOT AVBL GOLDSBORO NOT AVBL GREENVILLE CLEAR 79 73 83 CALM 30.18S HAVELOCK PTCLDY 78 75 90 CALM 30.17R KENANSVILLE CLOUDY 73 72 94 CALM 30.17R FOG KINSTON CLOUDY 77 74 90 CALM 30.17S NEW BERN CLOUDY 76 76 100 CALM 30.18R RICHLANDS CLOUDY 75 74 96 CALM 30.16S ROCKY MOUNT CLEAR 76 74 93 CALM 30.17R WASHINGTON CLOUDY 79 74 86 CALM 30.17S WHITEVILLE PTCLDY 76 75 96 CALM 30.14S $$ AMZ130-135-150-152-154-156-158-170-250-252-270-ANZ085-086-088-633-658-670-210400- MARINE OBSERVATIONS STATION/POSITION TIME TEMP WIND PRES WAVE SWELL AIR SEA DIR/SP/G HT/PER HT/PER (UTC) (F) (DEG/KT/KT) (MB) (FT/S) (FT/S) CHESAPEAKE LIGHT NOT AVBL 64 E VA BEACH 0250 78 79 100/ 6/ 6 1022.2 2/ 8 2/ 8 DUCK 0300 79 80 110/ 6/ 6 1021.4 2 E DUCK 0300 79 N/A 2/ 9 OREGON INLET 0300 78 83 70/ 3/ 3 1021.6 13E OREGON INLT 0248 81 N/A 2/ 9 2/ 9 HATTERAS CG 0300 80 80 120/ 1/ 3 1021.4 DIAMOND BUOY 0250 84 85 160/ 4/ 4 1021.2 2/ 8 2/ 8 CAPE LOOKOUT 0300 81 120/ 6/ 6 1020.8 BEAUFORT LAB 0300 81 81 140/ 3/ 4 1020.7 30 SE NEW RVR IN 0308 81 84 190/ 4/ 8 1021.1 30 SE NEW RVR IN 0313 84 N/A 3/ 8 27 SE WRIGHTSVLE 0308 84 84 150/ 4/ 6 1020.7 5 SE WRIGHTSVLE 0308 83 83 140/ 4/ 8 1020.6 225 S CAPE HAT 0250 83 85 160/ 8/ 10 1021.5 3/ 9 3/ 9 41 SE CHARLESTON 0310 85 85 160/ 8/ 10 1019.8 $$

USA.gov is the U.S. government's official web portal to all federal, state and local government web resources and services.